When you browse on this site, cookies collect data to enhance your experience and personalize the content and advertising you see.
Visit our Privacy Policy to learn more. By continuing to use the site, you agree to this use of cookies and data.
EN

Hourly Weather Cheb

Today, 14 August, Friday

Time Temperature Precipitation Wind Pressure Humidity
00:00 +20°C° 0.1 mm 1 mps 720 mmHg 97%
01:00 +19°C° 0.1 mm 1 mps 720 mmHg 97%
02:00 +19°C° 0 mm 1 mps 719 mmHg 97%
03:00 +19°C° 0 mm 1 mps 719 mmHg 97%
04:00 +19°C° 0 mm 1 mps 719 mmHg 97%
05:00 +20°C° 0.1 mm 1 mps 719 mmHg 96%
06:00 +20°C° 0.1 mm 1 mps 719 mmHg 95%
07:00 +20°C° 0.1 mm 1 mps 720 mmHg 94%
08:00 +19°C° 0.6 mm 2 mps 720 mmHg 93%
09:00 +19°C° 0.6 mm 2 mps 720 mmHg 93%
10:00 +20°C° 0.6 mm 2 mps 720 mmHg 92%
11:00 +20°C° 0.4 mm 2 mps 720 mmHg 90%
12:00 +20°C° 0.4 mm 2 mps 720 mmHg 87%
13:00 +21°C° 0.4 mm 2 mps 719 mmHg 85%
14:00 +21°C° 0.1 mm 2 mps 719 mmHg 84%
15:00 +21°C° 0.1 mm 3 mps 719 mmHg 84%
16:00 +21°C° 0.1 mm 3 mps 719 mmHg 83%
17:00 +20°C° 0 mm 2 mps 719 mmHg 85%
18:00 +20°C° 0 mm 2 mps 719 mmHg 87%
19:00 +20°C° 0 mm 1 mps 719 mmHg 90%
20:00 +19°C° 0 mm 1 mps 719 mmHg 91%
21:00 +19°C° 0 mm 1 mps 719 mmHg 92%
22:00 +18°C° 0 mm 1 mps 719 mmHg 93%
23:00 +18°C° 0 mm 1 mps 719 mmHg 92%

Tomorrow, 15 August, Saturday

Time Temperature Precipitation Wind Pressure Humidity
00:00 +18°C° 0 mm 1 mps 719 mmHg 92%
01:00 +18°C° 0 mm 1 mps 719 mmHg 91%
02:00 +18°C° 0.1 mm 1 mps 719 mmHg 91%
03:00 +18°C° 0.1 mm 1 mps 719 mmHg 92%
04:00 +18°C° 0.1 mm 1 mps 719 mmHg 92%
05:00 +19°C° 0.1 mm 1 mps 719 mmHg 91%
06:00 +19°C° 0.1 mm 1 mps 720 mmHg 90%
07:00 +17°C° 0.1 mm 0 mps 720 mmHg 89%
08:00 +18°C° 0.2 mm 0 mps 720 mmHg 88%
09:00 +19°C° 0.2 mm 0 mps 720 mmHg 86%
10:00 +19°C° 0.2 mm 0 mps 720 mmHg 85%
11:00 +21°C° 0.6 mm 0 mps 720 mmHg 81%
12:00 +24°C° 0.6 mm 1 mps 720 mmHg 77%
13:00 +25°C° 0.6 mm 1 mps 720 mmHg 74%
14:00 +25°C° 0.6 mm 1 mps 720 mmHg 73%
15:00 +25°C° 0.6 mm 1 mps 720 mmHg 72%
16:00 +25°C° 0.6 mm 1 mps 720 mmHg 72%
17:00 +24°C° 0.7 mm 1 mps 720 mmHg 78%
18:00 +23°C° 0.7 mm 1 mps 719 mmHg 83%
19:00 +21°C° 0.7 mm 1 mps 719 mmHg 89%
20:00 +21°C° 0.6 mm 1 mps 719 mmHg 91%
21:00 +20°C° 0.6 mm 1 mps 719 mmHg 92%
22:00 +19°C° 0.6 mm 1 mps 719 mmHg 94%
23:00 +19°C° 0 mm 1 mps 719 mmHg 94%

Day after tomorrow, 16 August, Sunday

Time Temperature Precipitation Wind Pressure Humidity
00:00 +18°C° 0 mm 1 mps 719 mmHg 94%
01:00 +18°C° 0 mm 1 mps 719 mmHg 94%
02:00 +18°C° 0 mm 1 mps 719 mmHg 95%
03:00 +18°C° 0 mm 1 mps 719 mmHg 95%
04:00 +16°C° 0 mm 1 mps 719 mmHg 95%
05:00 +18°C° 0 mm 1 mps 719 mmHg 94%
06:00 +19°C° 0 mm 1 mps 719 mmHg 92%
07:00 +18°C° 0 mm 0 mps 719 mmHg 91%
08:00 +22°C° 0.4 mm 1 mps 719 mmHg 85%
09:00 +23°C° 0.4 mm 1 mps 720 mmHg 80%
10:00 +25°C° 0.4 mm 1 mps 720 mmHg 74%
11:00 +25°C° 1.6 mm 1 mps 720 mmHg 73%
12:00 +26°C° 1.6 mm 1 mps 719 mmHg 71%
13:00 +26°C° 1.6 mm 1 mps 719 mmHg 70%
14:00 +26°C° 1.7 mm 1 mps 719 mmHg 70%
15:00 +26°C° 1.7 mm 1 mps 719 mmHg 70%
16:00 +26°C° 1.7 mm 1 mps 718 mmHg 70%
17:00 +25°C° 0.3 mm 1 mps 718 mmHg 74%
18:00 +22°C° 0.3 mm 0 mps 718 mmHg 78%
19:00 +20°C° 0.3 mm 0 mps 718 mmHg 82%
20:00 +20°C° 0 mm 0 mps 718 mmHg 84%
21:00 +19°C° 0 mm 0 mps 718 mmHg 85%
22:00 +18°C° 0 mm 0 mps 718 mmHg 87%
23:00 +18°C° 0 mm 0 mps 718 mmHg 88%

17 August, Monday

Time Temperature Precipitation Wind Pressure Humidity
00:00 +17°C° 0 mm 0 mps 717 mmHg 89%
01:00 +17°C° 0 mm 0 mps 717 mmHg 89%
02:00 +17°C° 0 mm 0 mps 717 mmHg 90%
03:00 +17°C° 0 mm 0 mps 717 mmHg 90%
04:00 +16°C° 0 mm 0 mps 717 mmHg 91%
05:00 +17°C° 0 mm 0 mps 717 mmHg 89%
06:00 +20°C° 0 mm 1 mps 718 mmHg 88%
07:00 +21°C° 0 mm 1 mps 718 mmHg 86%
08:00 +22°C° 0.3 mm 1 mps 718 mmHg 81%
09:00 +24°C° 0.3 mm 1 mps 718 mmHg 76%
10:00 +25°C° 0.3 mm 2 mps 719 mmHg 71%
11:00 +26°C° 0.4 mm 2 mps 718 mmHg 68%
12:00 +26°C° 0.4 mm 2 mps 718 mmHg 66%
13:00 +26°C° 0.4 mm 2 mps 718 mmHg 63%
14:00 +27°C° 0.1 mm 2 mps 718 mmHg 61%
15:00 +27°C° 0.1 mm 2 mps 718 mmHg 59%
16:00 +27°C° 0.1 mm 2 mps 717 mmHg 56%
17:00 +25°C° 0.5 mm 2 mps 717 mmHg 66%
18:00 +23°C° 0.5 mm 2 mps 717 mmHg 75%
19:00 +21°C° 0.5 mm 2 mps 717 mmHg 84%
20:00 +20°C° 0.5 mm 2 mps 717 mmHg 85%
21:00 +20°C° 0.5 mm 1 mps 718 mmHg 87%
22:00 +20°C° 0.5 mm 1 mps 718 mmHg 89%
23:00 +20°C° 0.1 mm 1 mps 718 mmHg 90%

18 August, Tuesday

Time Temperature Precipitation Wind Pressure Humidity
00:00 +19°C° 0.1 mm 1 mps 718 mmHg 91%
01:00 +19°C° 0.1 mm 1 mps 718 mmHg 92%
02:00 +18°C° 1.7 mm 2 mps 718 mmHg 93%
03:00 +18°C° 1.7 mm 2 mps 718 mmHg 94%
04:00 +17°C° 1.7 mm 3 mps 718 mmHg 95%
05:00 +17°C° 2.9 mm 3 mps 718 mmHg 95%
06:00 +17°C° 2.9 mm 2 mps 718 mmHg 95%
07:00 +17°C° 2.9 mm 2 mps 718 mmHg 95%
08:00 +17°C° 0.7 mm 2 mps 718 mmHg 92%
09:00 +19°C° 0.7 mm 1 mps 718 mmHg 90%
10:00 +19°C° 0.7 mm 1 mps 719 mmHg 88%
11:00 +20°C° 0.5 mm 1 mps 719 mmHg 84%
12:00 +20°C° 0.5 mm 2 mps 719 mmHg 81%
13:00 +20°C° 0.5 mm 2 mps 719 mmHg 78%
14:00 +20°C° 0.6 mm 2 mps 719 mmHg 78%
15:00 +21°C° 0.6 mm 2 mps 719 mmHg 78%
16:00 +21°C° 0.6 mm 3 mps 719 mmHg 78%
17:00 +20°C° 0.2 mm 2 mps 718 mmHg 81%
18:00 +19°C° 0.2 mm 2 mps 718 mmHg 84%
19:00 +18°C° 0.2 mm 2 mps 718 mmHg 87%
20:00 +17°C° 0 mm 2 mps 718 mmHg 88%
21:00 +16°C° 0 mm 2 mps 719 mmHg 89%
22:00 +15°C° 0 mm 1 mps 719 mmHg 90%
23:00 +15°C° 0 mm 2 mps 718 mmHg 90%

19 August, Wednesday

Time Temperature Precipitation Wind Pressure Humidity
00:00 +15°C° 0 mm 2 mps 718 mmHg 91%
01:00 +14°C° 0 mm 2 mps 718 mmHg 92%
02:00 +14°C° 0 mm 2 mps 718 mmHg 93%
03:00 +14°C° 0 mm 2 mps 718 mmHg 94%
04:00 +13°C° 0 mm 2 mps 718 mmHg 95%
05:00 +14°C° 0 mm 2 mps 718 mmHg 93%
06:00 +15°C° 0 mm 2 mps 718 mmHg 91%
07:00 +14°C° 0 mm 3 mps 718 mmHg 89%
08:00 +17°C° 0.1 mm 3 mps 718 mmHg 82%
09:00 +18°C° 0.1 mm 4 mps 718 mmHg 75%
10:00 +20°C° 0.1 mm 4 mps 718 mmHg 68%
11:00 +20°C° 0.4 mm 4 mps 718 mmHg 67%
12:00 +21°C° 0.4 mm 5 mps 718 mmHg 66%
13:00 +21°C° 0.4 mm 5 mps 717 mmHg 64%
14:00 +21°C° 0.4 mm 4 mps 717 mmHg 67%
15:00 +21°C° 0.4 mm 4 mps 717 mmHg 70%
16:00 +21°C° 0.4 mm 4 mps 717 mmHg 72%
17:00 +19°C° 0.2 mm 3 mps 717 mmHg 77%
18:00 +18°C° 0.2 mm 3 mps 717 mmHg 82%
19:00 +17°C° 0.2 mm 2 mps 717 mmHg 87%
20:00 +16°C° 0 mm 2 mps 717 mmHg 89%
21:00 +15°C° 0 mm 1 mps 717 mmHg 91%
22:00 +15°C° 0 mm 1 mps 717 mmHg 93%
23:00 +14°C° 0 mm 1 mps 718 mmHg 94%
Show more